This is the latest recevied weather packets stored in our database for station/object KF5WCW-1. If no packets are shown the sender has not sent any weather packets the latest 10 day(s).
| Time | Temp. | Humidity | Pressure | Rain* | Wind** | Luminosity | Snow |
|---|---|---|---|---|---|---|---|
| 1777863073 | 11.11° C | 41% | 0 hPa | 0 mm | - | - | - |
| 1777862773 | 11.67° C | 42% | 0 hPa | 0 mm | - | - | - |
| 1777862473 | 11.67° C | 39% | 0 hPa | 0 mm | - | - | - |
| 1777862173 | 12.22° C | 40% | 0 hPa | 0 mm | - | - | - |
| 1777861873 | 12.22° C | 40% | 0 hPa | 0 mm | - | - | - |
| 1777861573 | 12.22° C | 38% | 0 hPa | 0 mm | - | - | - |
| 1777861273 | 12.22° C | 37% | 0 hPa | 0 mm | - | - | - |
| 1777860973 | 12.78° C | 37% | 0 hPa | 0 mm | - | - | - |
| 1777860673 | 13.33° C | 35% | 0 hPa | 0 mm | - | - | - |
| 1777860373 | 13.33° C | 33% | 0 hPa | 0 mm | - | - | - |
| 1777860073 | 13.89° C | 31% | 0 hPa | 0 mm | - | - | - |
| 1777859773 | 13.89° C | 30% | 0 hPa | 0 mm | - | - | - |
| 1777859473 | 14.44° C | 29% | 0 hPa | 0 mm | - | - | - |
| 1777859173 | 14.44° C | 27% | 0 hPa | 0 mm | - | - | - |
| 1777858873 | 14.44° C | 27% | 0 hPa | 0 mm | - | - | - |
| 1777858573 | 15° C | 27% | 0 hPa | 0 mm | - | - | - |
| 1777858273 | 15° C | 25% | 0 hPa | 0 mm | - | - | - |
| 1777857973 | 15° C | 28% | 0 hPa | 0 mm | - | - | - |
| 1777857673 | 15° C | 28% | 0 hPa | 0 mm | - | - | - |
| 1777857374 | 14.44° C | 27% | 0 hPa | 0 mm | - | - | - |
| 1777857073 | 15° C | 25% | 0 hPa | 0 mm | - | - | - |
| 1777856773 | 15.56° C | 24% | 0 hPa | 0 mm | - | - | - |
| 1777856473 | 15.56° C | 25% | 0 hPa | 0 mm | - | - | - |
| 1777856173 | 15.56° C | 25% | 0 hPa | 0 mm | - | - | - |
| 1777855873 | 15.56° C | 23% | 0 hPa | 0 mm | - | - | - |
* Rain latest hour (hover to see other rain measurements)
** Current wind speed in m/s (hover to see current wind gust speed)